EW4380 Weather Reports


time (UTC)temp
F
wind
direction
speed
knots
gust
knots
rain 1hr
in
rain 24hr
in
rain mn
in
humidity
%
barometer
mb
20260510153023 81 163 3.5 6.1 0.00 0.00 0.00 76 1012.8
20260510151519 79 168 1.7 5.2 0.00 0.00 0.00 79 1012.7
20260510150018 78 165 1.7 5.2 0.00 0.00 0.00 80 1012.5
20260510144513 77 165 0.9 5.2 0.00 0.00 0.00 82 1012.4
20260510143015 76 163 0.0 4.3 0.00 0.00 0.00 84 1012.6
20260510141512 75 163 1.7 6.1 0.00 0.00 0.00 85 1012.6
20260510140010 74 165 0.9 5.2 0.00 0.09 0.00 86 1012.5
20260510134509 72 173 0.9 4.3 0.00 0.09 0.00 87 1012.4
20260510133008 71 173 0.0 2.6 0.00 0.09 0.00 87 1012.3
20260510131505 70 173 0.0 4.3 0.00 0.09 0.00 87 1011.9
20260510130013 69 173 0.0 1.7 0.00 0.14 0.00 88 1011.7
20260510124504 68 173 0.0 0.9 0.00 0.14 0.00 88 1011.7
20260510123004 67 173 0.0 0.0 0.00 0.14 0.00 87 1011.7
20260510121502 67 173 0.0 0.0 0.00 0.14 0.00 87 1011.7
20260510120000 67 173 0.0 0.0 0.00 0.14 0.00 87 1011.5
20260510114559 67 173 0.0 0.0 0.00 0.14 0.00 86 1011.1
20260510113158 68 170 0.0 0.0 0.00 0.14 0.00 86 1011.4
20260510111606 68 170 0.0 2.6 0.00 0.14 0.00 86 1011.3
20260510110054 68 171 0.0 2.6 0.00 0.14 0.00 86 1011.4
20260510104610 68 171 0.0 1.7 0.00 0.14 0.00 86 1011.3
20260510103053 68 171 0.9 3.5 0.00 0.14 0.00 86 1011.2
20260510101551 68 172 0.0 1.7 0.00 0.14 0.00 86 1011.4
20260510100048 69 172 0.0 0.9 0.00 0.14 0.00 85 1011.4
20260510094546 69 172 0.0 0.0 0.00 0.14 0.00 84 1011.1
20260510093045 69 172 0.0 0.9 0.00 0.14 0.00 84 1011.0
20260510091544 69 172 0.0 0.0 0.00 0.14 0.00 84 1010.9
20260510090044 70 172 0.0 0.0 0.00 0.14 0.00 84 1010.9
20260510084542 70 172 0.0 0.0 0.00 0.14 0.00 84 1010.7
20260510083041 70 172 0.0 0.0 0.00 0.14 0.00 84 1010.6
20260510081542 71 172 0.0 0.0 0.00 0.14 0.00 83 1010.8
20260510080041 71 172 0.0 0.0 0.00 0.14 0.00 82 1010.5
20260510074536 72 172 0.0 0.9 0.00 0.14 0.00 82 1010.5
20260510073033 72 172 0.0 0.0 0.00 0.14 0.00 81 1010.6
20260510071530 73 172 0.0 0.9 0.00 0.14 0.00 80 1010.6
20260510070028 74 172 0.0 2.6 0.00 0.14 0.00 80 1010.7
20260510064528 74 173 0.0 2.6 0.00 0.14 0.00 79 1010.9
20260510063026 74 173 0.0 3.5 0.00 0.14 0.00 79 1010.7
20260510061529 75 173 0.9 4.3 0.00 0.14 0.00 78 1010.8
20260510060041 75 176 0.0 3.5 0.00 0.14 0.00 78 1010.8
20260510054519 76 178 0.9 6.1 0.00 0.14 0.00 78 1010.5
20260510053016 76 185 1.7 6.1 0.00 0.14 0.00 78 1010.3
20260510051514 76 183 3.5 7.8 0.00 0.14 0.00 77 1010.3
20260510050011 77 190 3.5 7.0 0.00 0.14 0.14 77 1010.3
20260510044512 78 180 1.7 6.1 0.00 0.14 0.14 75 1010.3
20260510043011 79 181 2.6 7.0 0.00 0.14 0.14 73 1010.3
20260510041515 79 176 2.6 7.8 0.00 0.14 0.14 72 1010.4
20260510040009 79 130 2.6 8.7 0.00 0.14 0.14 73 1010.3
20260510034509 78 175 0.9 2.6 0.00 0.14 0.14 75 1010.2
20260510033008 79 177 0.0 1.7 0.00 0.14 0.14 75 1009.9
20260510031507 79 177 0.0 1.7 0.00 0.14 0.14 76 1009.8
20260510030007 78 177 0.0 2.6 0.00 0.14 0.14 78 1009.6
20260510024511 79 178 0.0 1.7 0.00 0.14 0.14 77 1009.5
20260510023015 80 178 0.0 1.7 0.00 0.14 0.14 74 1009.2
20260510021506 81 178 0.9 3.5 0.00 0.14 0.14 72 1009.0
20260510020005 81 184 0.9 3.5 0.00 0.14 0.14 72 1008.8
20260510014505 82 188 0.9 2.6 0.00 0.14 0.14 72 1008.5
20260510013010 83 188 0.0 0.9 0.00 0.14 0.14 71 1008.2
20260510011510 84 188 0.0 0.9 0.00 0.14 0.14 68 1007.9
20260510010008 86 188 0.0 2.6 0.00 0.14 0.14 65 1007.6
20260510004501 87 165 0.0 1.7 0.00 0.14 0.14 64 1007.5
20260510003002 88 165 0.0 4.3 0.00 0.14 0.14 63 1007.3
20260510001600 88 165 0.9 2.6 0.00 0.14 0.14 60 1007.4
20260510000100 88 165 0.0 5.2 0.00 0.14 0.14 58 1007.7
20260509234606 89 180 0.0 2.6 0.00 0.14 0.14 57 1007.9
20260509233102 89 180 2.6 4.3 0.00 0.14 0.14 55 1007.8
20260509231602 89 173 1.7 5.2 0.00 0.14 0.14 58 1007.8
20260509230054 89 174 0.9 3.5 0.00 0.14 0.14 58 1007.8
20260509224557 89 178 0.9 5.2 0.00 0.14 0.14 58 1007.7
20260509223052 89 175 0.9 3.5 0.00 0.14 0.14 59 1007.8
20260509221550 90 182 0.0 4.3 0.00 0.14 0.14 60 1007.9
20260509220049 89 175 2.6 6.1 0.00 0.14 0.14 59 1007.8
20260509214547 89 187 1.7 7.0 0.00 0.14 0.14 61 1007.8
20260509213100 88 192 1.7 5.2 0.00 0.14 0.14 61 1007.9
20260509211608 88 217 0.9 3.5 0.00 0.14 0.14 63 1007.9
20260509210042 88 234 0.9 4.3 0.00 0.14 0.14 61 1008.3
20260509204553 87 287 1.7 7.0 0.00 0.14 0.14 62 1008.6
20260509203044 87 231 2.6 7.8 0.00 0.14 0.14 64 1008.8
20260509201536 87 259 0.9 6.1 0.00 0.14 0.14 65 1009.0
20260509200035 87 233 2.6 7.8 0.00 0.14 0.14 66 1009.3
20260509194535 86 317 3.5 8.7 0.00 0.14 0.14 65 1009.7
20260509193033 86 261 4.3 8.7 0.00 0.14 0.14 68 1009.7
20260509191533 86 255 2.6 8.7 0.00 0.14 0.14 69 1009.8
20260509190028 85 245 5.2 8.7 0.00 0.14 0.14 70 1009.9
20260509184527 85 231 0.9 7.0 0.00 0.14 0.14 67 1010.1
20260509183026 85 286 4.3 7.8 0.00 0.14 0.14 71 1010.2
20260509181524 84 219 1.7 7.0 0.00 0.14 0.14 71 1010.4
20260509180023 84 228 0.9 7.8 0.00 0.14 0.14 71 1010.7
20260509174523 83 236 3.5 8.7 0.00 0.14 0.14 70 1010.7
20260509173021 84 264 2.6 8.7 0.00 0.14 0.14 75 1010.9
20260509171518 83 223 2.6 7.8 0.00 0.14 0.14 75 1010.9
20260509170017 82 175 2.6 12.2 0.00 0.14 0.14 75 1010.8
20260509164515 81 252 6.1 9.6 0.00 0.14 0.14 76 1011.1
20260509163013 81 211 2.6 6.1 0.00 0.14 0.14 79 1011.2
20260509161512 80 224 2.6 7.0 0.00 0.14 0.14 80 1011.3
20260509160008 79 229 2.6 7.0 0.00 0.14 0.14 82 1011.5
20260509154507 79 194 0.9 5.2 0.00 0.14 0.14 82 1011.9